EW6058 Weather Reports


time (UTC)temp
C
wind
direction
speed
KPH
gust
KPH
rain 1hr
cm
rain 24hr
cm
rain mn
cm
humidity
%
barometer
mb
20260505091506 9 154 0.0 3.2 0.00 0.00 0.00 91 1012.5
20260505091007 9 165 0.0 3.2 0.00 0.00 0.00 90 1012.3
20260505090504 9 165 0.0 3.2 0.00 0.00 0.00 91 1012.3
20260505090007 9 179 0.0 3.2 0.00 0.00 0.00 91 1012.3
20260505085504 9 179 0.0 3.2 0.00 0.00 0.00 91 1012.4
20260505085004 9 179 0.0 3.2 0.00 0.00 0.00 91 1012.4
20260505084506 8 179 0.0 3.2 0.00 0.00 0.00 91 1012.4
20260505084004 8 161 0.0 3.2 0.00 0.00 0.00 91 1012.4
20260505083504 8 160 0.0 3.2 0.00 0.00 0.00 91 1012.5
20260505083006 8 176 0.0 3.2 0.00 0.00 0.00 90 1012.4
20260505082508 8 176 0.0 3.2 0.00 0.00 0.00 90 1012.5
20260505082004 8 176 0.0 3.2 0.00 0.00 0.00 90 1012.5
20260505081506 9 183 0.0 3.2 0.00 0.00 0.00 90 1012.5
20260505081007 9 183 0.0 3.2 0.00 0.00 0.00 89 1012.6
20260505080505 9 183 0.0 3.2 0.00 0.00 0.00 89 1012.5
20260505080006 9 183 0.0 3.2 0.00 0.00 0.00 89 1012.6
20260505075503 9 181 0.0 3.2 0.00 0.00 0.00 89 1012.7
20260505075004 10 217 0.0 3.2 0.00 0.00 0.00 89 1012.8
20260505074507 10 110 0.0 3.2 0.00 0.00 0.00 88 1012.8
20260505074004 10 110 0.0 3.2 0.00 0.00 0.00 88 1012.8
20260505073504 10 169 0.0 3.2 0.00 0.00 0.00 87 1012.7
20260505073008 10 169 1.6 3.2 0.00 0.00 0.00 88 1012.7
20260505072503 10 148 0.0 3.2 0.00 0.00 0.00 88 1012.7
20260505072003 10 148 0.0 3.2 0.00 0.00 0.00 88 1012.7
20260505071508 10 148 0.0 3.2 0.00 0.00 0.00 88 1012.7
20260505071003 10 164 0.0 3.2 0.00 0.00 0.00 88 1012.7
20260505070502 10 180 1.6 3.2 0.00 0.00 0.00 88 1012.7
20260505070005 10 278 0.0 3.2 0.00 0.00 0.00 88 1012.7
20260505065502 10 163 0.0 4.8 0.00 0.00 0.00 88 1012.7
20260505065005 10 199 1.6 4.8 0.00 0.00 0.00 88 1012.7
20260505064509 10 205 1.6 3.2 0.00 0.00 0.00 88 1012.6
20260505064005 10 192 0.0 4.8 0.00 0.00 0.00 88 1012.6
20260505063504 10 164 1.6 6.4 0.00 0.00 0.00 88 1012.6
20260505063012 10 201 1.6 4.8 0.00 0.00 0.00 88 1012.6
20260505062505 10 208 1.6 4.8 0.00 0.00 0.00 88 1012.6
20260505062005 10 203 1.6 6.4 0.00 0.00 0.00 88 1012.6
20260505061507 10 182 1.6 6.4 0.00 0.00 0.00 88 1012.6
20260505061006 10 177 1.6 4.8 0.00 0.00 0.00 88 1012.7
20260505060504 10 176 0.0 4.8 0.00 0.00 0.00 88 1012.7
20260505060022 10 173 1.6 4.8 0.00 0.00 0.00 88 1012.7
20260505055507 10 172 0.0 3.2 0.00 0.00 0.00 88 1012.7
20260505055003 10 168 1.6 3.2 0.00 0.00 0.00 88 1012.7
20260505054506 10 155 1.6 4.8 0.00 0.00 0.00 88 1012.7
20260505054006 10 165 1.6 4.8 0.00 0.00 0.00 88 1012.8
20260505053507 10 207 1.6 4.8 0.00 0.00 0.00 88 1012.8
20260505053010 10 169 1.6 6.4 0.00 0.00 0.00 88 1012.7
20260505052504 10 180 1.6 6.4 0.00 0.00 0.00 88 1012.7
20260505052005 10 179 1.6 4.8 0.00 0.00 0.00 87 1012.8
20260505051509 10 174 1.6 3.2 0.00 0.00 0.00 87 1012.8
20260505051007 10 171 1.6 6.4 0.00 0.00 0.00 87 1012.8
20260505050510 10 202 1.6 6.4 0.00 0.00 0.00 87 1012.8
20260505041511 10 155 1.6 4.8 0.00 0.00 0.00 87 1012.8
20260505041007 10 178 1.6 4.8 0.00 0.00 0.00 87 1012.8
20260505040506 10 160 1.6 6.4 0.00 0.00 0.00 86 1012.9
20260505040013 10 160 1.6 6.4 0.00 0.00 0.00 86 1013.1
20260505035511 10 167 1.6 3.2 0.00 0.00 0.00 86 1013.2
20260505035008 10 196 1.6 3.2 0.00 0.00 0.00 86 1013.2
20260505034515 10 167 1.6 3.2 0.00 0.00 0.00 86 1013.2
20260505034008 10 203 1.6 3.2 0.00 0.00 0.00 85 1013.3
20260505033506 10 201 0.0 3.2 0.00 0.00 0.00 85 1013.3
20260505033018 10 183 1.6 3.2 0.00 0.00 0.00 85 1013.3
20260505032508 10 179 0.0 3.2 0.00 0.00 0.00 85 1013.3
20260505032005 10 135 1.6 3.2 0.00 0.00 0.00 85 1013.3
20260505031509 10 179 1.6 3.2 0.00 0.00 0.00 85 1013.3
20260505031007 10 163 0.0 3.2 0.00 0.00 0.00 84 1013.3
20260505030507 10 163 0.0 3.2 0.00 0.00 0.00 84 1013.3
20260505030012 10 183 1.6 3.2 0.00 0.00 0.00 84 1013.4
20260505025505 10 181 0.0 3.2 0.00 0.00 0.00 83 1013.4
20260505025005 10 186 0.0 3.2 0.00 0.00 0.00 83 1013.4
20260505024513 10 167 0.0 3.2 0.00 0.00 0.00 83 1013.4
20260505024008 10 167 1.6 3.2 0.00 0.00 0.00 83 1013.5
20260505023506 10 147 1.6 3.2 0.00 0.00 0.00 82 1013.5
20260505023016 10 182 1.6 4.8 0.00 0.00 0.00 82 1013.5
20260505022508 11 163 1.6 4.8 0.00 0.00 0.00 82 1013.6
20260505022007 11 198 3.2 4.8 0.00 0.00 0.00 81 1013.5
20260505021517 11 204 3.2 4.8 0.00 0.00 0.00 81 1013.5
20260505021007 11 188 1.6 6.4 0.00 0.00 0.00 81 1013.6
20260505020506 11 166 3.2 6.4 0.00 0.00 0.00 81 1013.5
20260505020012 11 203 3.2 6.4 0.00 0.00 0.00 81 1013.4
20260505015507 11 174 1.6 8.0 0.00 0.00 0.00 80 1013.4
20260505015004 11 171 1.6 8.0 0.00 0.00 0.00 80 1013.3
20260505014508 11 165 3.2 6.4 0.00 0.00 0.00 80 1013.3
20260505014003 11 186 1.6 6.4 0.00 0.00 0.00 80 1013.2
20260505013502 11 169 1.6 6.4 0.00 0.00 0.00 80 1013.2
20260505013003 11 188 1.6 6.4 0.00 0.00 0.00 80 1013.1
20260505012502 11 170 3.2 8.0 0.00 0.00 0.00 80 1013.0
20260505012003 11 180 3.2 9.7 0.00 0.00 0.00 79 1012.9
20260505011506 11 192 3.2 9.7 0.00 0.00 0.00 78 1012.8
20260505011003 11 172 3.2 9.7 0.00 0.00 0.00 78 1012.7
20260505010503 11 165 3.2 11.3 0.00 0.00 0.00 77 1012.7
20260505010009 11 174 3.2 11.3 0.00 0.00 0.00 77 1012.6
20260505005504 11 195 3.2 6.4 0.00 0.00 0.00 76 1012.7
20260505005007 11 143 3.2 11.3 0.00 0.00 0.00 75 1012.6
20260505004528 11 174 3.2 11.3 0.00 0.00 0.00 75 1012.4
20260505004005 11 169 3.2 12.9 0.00 0.00 0.00 75 1012.4
20260505003510 11 158 3.2 12.9 0.00 0.00 0.00 75 1012.3
20260505003002 11 213 1.6 8.0 0.00 0.00 0.00 74 1012.2
20260505002503 11 167 3.2 8.0 0.00 0.00 0.00 74 1012.2
20260505002003 11 168 4.8 6.4 0.00 0.00 0.00 74 1012.1
20260505001504 11 179 3.2 8.0 0.00 0.00 0.00 73 1011.9
20260505001002 11 214 3.2 8.0 0.00 0.00 0.00 73 1011.6
20260505000504 11 224 4.8 9.7 0.00 0.00 0.00 72 1011.8
20260505000006 11 206 3.2 11.3 0.00 0.00 0.00 72 1011.7
20260504235506 11 158 1.6 11.3 0.00 0.00 0.00 71 1011.7
20260504235004 11 181 3.2 6.4 0.00 0.00 0.00 71 1011.6
20260504234525 11 176 1.6 9.7 0.00 0.00 0.00 70 1011.4
20260504234006 11 198 3.2 9.7 0.00 0.00 0.00 70 1011.5
20260504233507 11 158 3.2 9.7 0.00 0.00 0.00 70 1011.5
20260504233014 11 192 3.2 9.7 0.00 0.00 0.00 70 1011.5
20260504232508 11 189 1.6 9.7 0.00 0.00 0.00 69 1011.4
20260504232008 11 158 4.8 9.7 0.00 0.00 0.00 68 1011.4
20260504231511 12 178 3.2 8.0 0.00 0.00 0.00 68 1011.4
20260504231004 12 172 1.6 8.0 0.00 0.00 0.00 67 1011.3
20260504230503 12 169 1.6 9.7 0.00 0.00 0.00 67 1011.2
20260504230005 12 150 3.2 9.7 0.00 0.00 0.00 67 1011.3
20260504225507 12 171 3.2 9.7 0.00 0.00 0.00 65 1011.1
20260504225004 12 198 3.2 9.7 0.00 0.00 0.00 65 1011.2
20260504224507 12 174 3.2 9.7 0.00 0.00 0.00 64 1011.1
20260504224003 12 165 3.2 9.7 0.00 0.00 0.00 64 1011.1
20260504223507 12 143 4.8 9.7 0.00 0.00 0.00 63 1011.0
20260504223014 13 170 4.8 9.7 0.00 0.00 0.00 63 1011.0
20260504222508 13 213 4.8 9.7 0.00 0.00 0.00 63 1011.1
20260504222006 13 154 3.2 8.0 0.00 0.00 0.00 62 1010.9
20260504221518 13 172 3.2 8.0 0.00 0.00 0.00 61 1011.0
20260504221006 13 148 3.2 14.5 0.00 0.00 0.00 61 1010.9
20260504220507 13 219 3.2 14.5 0.00 0.00 0.00 63 1011.0
20260504220004 13 84 3.2 11.3 0.00 0.00 0.00 63 1011.1
20260504215504 13 132 4.8 9.7 0.00 0.00 0.00 62 1011.2
20260504215005 13 224 3.2 9.7 0.00 0.00 0.00 61 1011.1
20260504214514 13 167 3.2 8.0 0.00 0.00 0.00 62 1011.0
20260504214004 13 165 4.8 11.3 0.00 0.00 0.00 62 1011.1
20260504213506 13 213 4.8 11.3 0.00 0.00 0.00 62 1011.0
20260504213012 13 160 3.2 9.7 0.00 0.00 0.00 62 1011.1
20260504212508 13 146 3.2 9.7 0.00 0.00 0.00 61 1011.1
20260504212008 14 143 3.2 11.3 0.00 0.00 0.00 61 1011.2
20260504211516 14 173 4.8 9.7 0.00 0.00 0.00 59 1011.1
20260504211007 14 147 1.6 6.4 0.00 0.00 0.00 60 1011.1
20260504210507 14 151 3.2 6.4 0.00 0.00 0.00 59 1011.1
20260504210021 14 160 4.8 6.4 0.00 0.00 0.00 58 1011.1
20260504205510 15 183 1.6 9.7 0.00 0.00 0.00 59 1011.1
20260504205008 14 185 3.2 11.3 0.00 0.00 0.00 58 1010.9
20260504204505 15 132 4.8 11.3 0.00 0.00 0.00 57 1010.9
20260504204003 15 197 3.2 11.3 0.00 0.00 0.00 57 1011.0
20260504203503 15 174 4.8 11.3 0.00 0.00 0.00 56 1010.8
20260504203013 15 168 3.2 12.9 0.00 0.00 0.00 54 1010.8
20260504202504 15 74 4.8 12.9 0.00 0.00 0.00 54 1010.8
20260504202005 15 141 4.8 11.3 0.00 0.00 0.00 53 1010.7
20260504201514 16 154 3.2 9.7 0.00 0.00 0.00 53 1010.7
20260504201007 16 167 3.2 11.3 0.00 0.00 0.00 52 1010.6
20260504200511 16 186 4.8 11.3 0.00 0.00 0.00 49 1010.7
20260504200023 16 168 4.8 9.7 0.00 0.00 0.00 48 1010.7
20260504195509 16 194 3.2 6.4 0.00 0.00 0.00 49 1010.8
20260504195007 16 193 3.2 6.4 0.00 0.00 0.00 48 1010.8
20260504194521 16 198 4.8 14.5 0.00 0.00 0.00 49 1010.9
20260504194006 16 174 3.2 16.1 0.00 0.00 0.00 50 1010.8
20260504193508 16 179 4.8 16.1 0.00 0.00 0.00 51 1010.8
20260504193012 16 149 6.4 14.5 0.00 0.00 0.00 51 1010.9
20260504192503 16 191 6.4 14.5 0.00 0.00 0.00 51 1010.8
20260504192010 16 131 3.2 11.3 0.00 0.00 0.00 53 1010.9
20260504191513 16 161 3.2 11.3 0.00 0.00 0.00 53 1011.0
20260504191007 16 154 4.8 16.1 0.00 0.00 0.00 52 1011.3
20260504190505 16 172 8.0 16.1 0.00 0.00 0.00 50 1011.1
20260504190014 16 146 4.8 12.9 0.00 0.00 0.00 51 1011.3
20260504185506 16 171 3.2 9.7 0.00 0.00 0.00 51 1011.3
20260504185005 17 150 4.8 9.7 0.00 0.00 0.00 50 1011.4
20260504184521 16 192 3.2 17.7 0.00 0.00 0.00 52 1011.4
20260504184012 16 194 6.4 17.7 0.00 0.00 0.00 50 1011.3
20260504183509 16 160 4.8 16.1 0.00 0.00 0.00 51 1011.4
20260504183028 16 145 4.8 16.1 0.00 0.00 0.00 51 1011.3
20260504182509 16 203 4.8 14.5 0.00 0.00 0.00 50 1011.3
20260504182010 16 169 3.2 12.9 0.00 0.00 0.00 52 1011.3
20260504181510 16 144 4.8 9.7 0.00 0.00 0.00 52 1011.1
20260504181004 16 204 4.8 9.7 0.00 0.00 0.00 53 1011.1
20260504180507 16 223 3.2 8.0 0.00 0.00 0.00 53 1011.1
20260504180014 16 175 3.2 6.4 0.00 0.00 0.00 55 1011.1
20260504175507 16 186 3.2 11.3 0.00 0.00 0.00 56 1011.2
20260504175005 16 138 3.2 12.9 0.00 0.00 0.00 58 1011.3
20260504174518 16 202 3.2 12.9 0.00 0.00 0.00 58 1011.4
20260504174008 16 196 6.4 12.9 0.00 0.00 0.00 58 1011.3
20260504173510 16 195 4.8 11.3 0.00 0.00 0.00 59 1011.3
20260504173023 16 201 4.8 14.5 0.00 0.00 0.00 59 1011.3
20260504172509 16 187 4.8 14.5 0.00 0.00 0.00 59 1011.3
20260504172009 16 231 6.4 17.7 0.00 0.00 0.00 57 1011.3
20260504171537 16 152 4.8 17.7 0.00 0.00 0.00 57 1011.4
20260504171013 16 188 6.4 17.7 0.00 0.00 0.00 59 1011.4
20260504170508 16 125 6.4 11.3 0.00 0.00 0.00 58 1011.5
20260504151008 15 148 4.8 11.3 0.00 0.00 0.00 61 1012.2
20260504150508 15 164 4.8 12.9 0.00 0.00 0.00 59 1012.3
20260504141008 14 148 3.2 12.9 0.00 0.00 0.00 61 1012.5
20260504140508 14 210 4.8 12.9 0.00 0.00 0.00 65 1012.7
20260504130509 13 155 3.2 8.0 0.00 0.00 0.00 70 1012.9
20260504110506 9 176 3.2 4.8 0.00 0.00 0.00 79 1012.5
20260504100507 8 176 0.0 4.8 0.00 0.00 0.00 79 1012.4